sat.trackr.live / text

‹ back to catalog

ONEWEB-0310

NORAD 49096 · 2021-075X

PAYLOAD ACTIVE UNKNOWN

§ Identity

Operator
Country
UK
Launch date
2021-08-21
Launch site
TYMSC
Launch vehicle
Mass (kg)
RCS (m²)

Purposes: comms

External: N2YO · Heavens-Above · Gunter

§ Orbital elements

Epoch: 2026-09-20T03:37:17.397984Z

Period
109.72 min
Inclination
87.8979°
Eccentricity
0.0001846
Mean motion
13.12443346 rev/d
Perigee alt
1,212.3 km
Apogee alt
1,215.1 km
Semi-major
7,591.9 km
B*
-8.5196e-4
RAAN
331.8229°
Arg perigee
97.5342°
Mean anomaly
262.5996°
Rev number
24,764

§ Raw data

ONEWEB-03101 49096U 21075X   26263.15089581 -.00000294  00000+0 -85196-3 0  99972 49096  87.8979 331.8229 0001846  97.5342 262.5996 13.12443346247648

JSON: /api/v1/satellites/49096 · /tle

For live sub-satellite position, see the globe view (requires WebGL).

§ Visibility from observer

Set your observer location to see the next 7 days of passes ≥ 10°. The values pass through the URL so the page stays shareable.

No JS? Fill the form by hand. The geolocation button needs JavaScript.